RH
11 14 23 14 18 18 16 11 6 6 12 18 24 32 51 53 73 68 92 90 89 93 94 98 91 91 92 92 91 95 98 98 99 99 98 89 87 88 88 90 90 91 96 100 94 89 83 82 81
12 16 13 12 20 18 12 8 8 26 28 28 27 28 46 62 61 83 87 84 86 87 93 99 93 95 99 99 99 99 99 99 97 95 88 83 81 80 79 78 80 81 85 89 89 83 78 79 80
9 16 10 14 17 18 13 10 24 29 26 25 29 36 46 60 59 70 83 81 83 89 92 99 94 97 94 83 79 86 88 80 69 71 52 36 34 29 30 33 34 38 41 43 44 46 53 63 70
14 10 9 13 13 11 9 8 14 25 24 23 28 48 44 43 49 71 79 77 82 88 95 96 89 93 96 97 91 86 84 72 57 61 52 41 37 30 25 27 31 27 24 23 22 21 20 19 18
10 10 12 13 11 8 7 8 11 21 20 25 25 45 52 46 62 72 71 72 78 84 91 98 95 97 98 94 95 87 75 56 37 32 29 28 26 25 22 24 24 22 19 17 16 15 15 15 16
12 10 13 12 9 7 7 8 13 17 18 22 32 44 49 51 61 68 70 74 71 75 85 91 98 98 97 94 89 67 50 38 33 28 24 22 20 23 33 18 16 15 14 14 13 13 13 13 14
12 12 13 10 10 8 8 8 15 15 21 24 20 37 49 47 54 60 67 70 70 73 78 86 93 94 89 80 63 44 28 22 20 20 26 43 44 46 40 21 13 11 11 10 11 12 14 14 18
10 10 11 10 10 8 6 10 13 15 19 16 19 39 52 44 50 56 61 65 71 71 73 75 72 76 68 44 28 25 24 27 42 37 44 50 52 51 46 38 31 25 28 30 34 31 33 32 37
8 12 12 10 8 8 8 12 13 14 19 18 21 29 35 46 49 53 57 60 67 67 65 62 66 68 66 50 55 52 55 60 61 58 52 54 53 43 44 45 39 49 40 51 42 45 40 42 45
10 12 11 8 8 8 8 10 15 18 17 20 26 34 43 44 48 49 50 51 55 59 64 63 62 62 54 54 57 55 54 56 58 61 55 51 50 48 44 43 41 44 41 44 45 44 43 48 53
10 12 9 8 8 7 7 8 10 18 18 18 28 43 42 43 44 43 42 44 45 51 55 59 62 56 47 50 47 42 46 48 56 51 56 52 48 48 45 44 41 43 44 47 48 46 49 52 53
11 9 9 8 7 7 8 7 10 11 15 13 24 36 37 40 40 38 37 38 40 45 48 56 60 56 50 44 44 45 46 46 52 56 54 51 50 50 47 48 43 45 47 49 51 49 51 52 50
9 9 9 8 7 7 7 8 8 12 12 12 26 33 35 36 36 34 33 35 38 39 47 51 59 60 52 46 48 49 47 49 52 59 57 54 56 54 50 47 45 48 51 53 53 52 54 53 52
11 9 9 9 8 7 8 8 8 9 10 12 26 30 31 33 34 32 31 33 36 41 48 52 56 58 52 51 53 50 49 48 53 62 67 60 60 55 50 48 50 54 55 53 53 54 54 56 55
14 12 10 10 9 9 8 10 10 8 8 12 16 25 27 29 30 31 30 33 36 43 50 54 57 57 57 57 49 47 44 44 47 56 61 63 54 52 49 49 55 54 55 52 57 59 61 60 60
20 17 18 11 8 8 9 14 10 8 8 11 15 20 24 26 28 29 30 33 37 43 53 57 57 58 54 49 46 46 43 43 45 49 58 63 53 48 50 52 59 53 53 56 63 66 66 65 61
22 26 20 16 10 10 10 13 9 9 8 12 12 17 22 27 28 28 31 33 37 43 53 52 55 57 57 54 51 50 44 43 44 48 56 62 57 52 52 54 62 57 54 61 70 73 69 67 64
23 20 18 19 14 11 11 11 10 10 10 12 12 15 21 26 28 30 32 33 34 42 46 49 57 58 56 52 47 46 44 43 45 52 57 60 61 56 56 54 58 59 60 68 74 72 70 64 67
20 20 19 16 13 15 15 15 13 11 13 14 15 14 22 26 27 32 32 33 33 45 47 52 56 58 56 49 45 43 41 41 42 55 58 58 60 55 60 60 59 64 62 68 73 73 71 66 70
22 23 23 18 15 17 18 17 15 14 14 14 14 15 20 27 30 33 36 36 45 47 48 51 58 58 49 42 39 38 37 37 41 51 56 55 56 54 59 63 64 65 62 66 69 72 73 68 66
27 27 26 26 19 17 20 21 19 16 15 14 14 14 18 28 31 37 39 41 45 48 48 51 54 50 38 39 41 42 41 40 40 37 44 52 54 52 57 61 64 65 62 68 67 70 69 69 63
35 25 24 24 26 31 19 32 22 18 17 17 15 16 20 26 29 37 39 43 44 49 48 47 46 40 41 39 41 42 43 38 36 34 43 52 52 51 54 56 60 62 62 68 68 69 68 65 65
29 26 26 26 29 35 30 34 27 20 20 18 17 18 20 26 30 38 40 43 44 48 49 46 44 45 44 37 37 38 37 40 36 38 44 48 50 52 52 54 55 56 60 63 63 65 66 65 64
24 28 30 40 35 54 38 34 34 29 24 19 19 20 22 27 32 36 38 42 44 47 50 48 46 44 44 42 43 38 36 34 37 36 36 37 40 45 53 53 53 55 56 58 57 56 57 59 59
26 35 58 79 64 64 34 34 33 21 17 19 23 20 23 28 33 36 41 43 44 49 52 51 46 46 47 46 46 46 40 37 38 35 33 35 38 44 55 54 56 56 56 56 54 52 52 56 56
31 34 54 72 57 46 26 34 27 19 17 17 16 21 20 26 32 36 41 42 42 50 53 51 46 48 48 48 48 47 46 40 40 36 39 40 44 53 58 57 57 56 56 55 50 52 53 53 52
33 39 30 48 43 57 41 30 25 22 21 22 20 18 22 24 31 37 41 42 42 52 55 53 46 47 48 49 47 44 40 39 44 49 49 49 47 58 61 58 58 59 59 55 49 53 58 55 55
35 29 66 93 99 94 49 39 48 46 39 37 35 27 25 27 30 38 44 42 41 54 56 52 46 46 48 49 48 46 44 46 48 48 50 57 61 60 60 62 63 65 65 63 55 60 66 63 67
31 38 44 47 82 99 81 57 32 53 34 35 52 47 35 35 40 39 47 41 48 66 61 54 49 46 48 49 47 48 47 48 50 55 59 61 61 60 61 66 72 76 76 76 68 65 76 74 77
26 42 42 70 83 66 72 68 37 37 33 28 30 62 54 35 54 43 48 45 72 69 67 57 54 48 48 50 50 50 48 48 52 59 63 64 63 62 65 71 76 81 84 76 82 79 82 83 86
Wind_Speed
16 11 9 14 6 8 16 21 22 2 2 9 14 13 16 16 5 6 11 12 14 15 16 14 14 14 15 14 13 13 13 13 13 12 11 9 8 6 4 3 2 1 3 3 4 5 8 10 11
12 15 16 8 9 12 13 17 4 16 15 12 7 4 12 8 9 13 12 18 16 17 16 16 15 15 15 16 16 15 14 14 13 12 11 10 8 6 5 4 3 3 4 5 6 7 8 10 12
9 12 8 8 13 15 17 6 15 13 8 8 4 12 9 6 14 17 24 23 19 20 17 16 16 16 16 15 15 14 14 13 13 12 10 9 7 6 4 3 3 4 5 7 8 10 11 11 11
7 7 6 10 19 22 21 5 8 9 3 4 14 9 7 12 8 17 24 22 21 19 16 17 17 16 15 15 14 13 13 13 12 11 10 8 7 6 5 5 6 7 8 10 11 13 14 15 15
17 7 11 18 22 22 17 4 6 8 8 5 10 10 8 16 24 25 24 23 23 20 17 13 15 14 15 15 14 13 12 12 10 9 8 8 8 7 6 6 8 8 10 11 12 14 15 16 17
8 11 13 15 22 21 3 4 2 8 10 9 13 11 8 19 22 21 20 20 19 22 17 15 15 15 15 14 13 13 12 11 10 9 9 10 9 10 9 10 11 12 13 13 14 15 16 17 17
12 11 17 22 22 23 4 8 4 9 11 11 8 8 12 16 20 21 20 19 18 19 18 15 15 15 15 14 13 12 11 11 11 10 11 14 16 13 14 13 15 13 14 14 15 16 17 16 16
12 12 20 20 18 21 5 9 6 4 7 6 10 8 11 19 22 21 20 19 16 17 20 17 14 12 11 13 13 13 11 12 14 14 15 11 11 9 13 14 19 16 18 17 20 19 19 18 15
18 11 14 21 22 19 12 7 6 7 9 5 6 10 25 31 25 22 20 17 16 15 15 14 16 15 9 11 11 11 14 13 10 9 11 7 5 9 7 13 18 18 20 16 20 19 19 19 16
14 12 19 23 12 14 3 3 11 6 7 6 11 21 31 31 27 23 21 20 19 18 16 15 14 14 12 10 10 8 8 6 8 9 8 8 8 11 10 10 13 13 16 13 15 15 15 16 17
16 16 16 22 12 11 15 4 10 12 13 15 17 20 20 26 24 22 22 22 21 20 17 16 14 13 11 11 9 9 8 7 7 10 12 10 7 9 9 9 11 13 13 15 16 15 15 17 17
17 18 16 19 13 5 13 17 11 12 15 4 25 24 19 20 18 21 22 23 24 22 19 17 15 14 12 13 10 10 9 8 7 8 10 10 7 9 10 11 11 12 14 15 15 15 16 16 16
15 15 13 20 10 8 14 15 15 9 3 2 25 23 21 18 19 23 24 23 24 20 20 19 16 15 15 13 13 11 10 9 8 8 9 10 7 9 9 10 11 12 14 16 17 17 18 17 17
16 15 11 15 14 13 13 14 14 13 9 9 21 20 19 20 20 23 24 25 24 22 19 17 16 15 14 13 12 12 10 10 8 6 8 9 8 11 10 11 12 13 15 16 16 18 19 19 19
14 15 14 17 15 17 14 18 20 17 12 11 11 14 17 19 24 21 23 23 24 22 20 19 18 16 15 16 14 12 12 11 9 7 8 9 11 11 11 10 11 13 14 15 17 18 19 20 21
15 17 15 16 19 20 17 21 18 19 17 15 16 13 15 17 19 23 24 26 25 24 23 20 18 19 17 16 14 13 12 11 10 8 7 9 11 12 11 10 11 14 14 14 17 19 20 21 21
16 17 19 19 19 18 23 22 19 14 16 18 15 15 14 14 16 22 24 24 24 24 22 20 20 20 19 17 16 14 13 11 10 9 7 9 11 12 12 10 11 13 13 14 17 18 19 20 21
18 19 17 17 16 16 18 19 16 16 7 12 13 15 15 15 17 23 24 24 25 26 24 21 22 22 20 18 17 15 13 12 10 9 9 8 9 11 10 10 12 13 13 14 17 18 19 18 23
19 21 22 19 16 12 14 16 16 14 16 16 15 14 17 16 15 23 24 25 24 29 25 24 24 22 21 20 19 17 15 12 11 8 9 8 9 11 11 11 12 13 13 14 17 19 19 20 24
22 22 20 19 18 17 19 20 18 16 15 19 19 18 18 18 17 17 24 25 25 27 25 23 21 21 20 18 15 16 15 12 12 9 7 9 9 11 11 12 11 12 12 14 16 18 18 15 21
23 23 19 20 20 20 19 26 18 14 17 19 22 20 19 22 21 19 19 22 23 23 22 21 20 19 16 18 16 16 15 12 12 11 8 9 10 11 11 11 11 11 12 13 14 15 16 16 17
23 18 20 20 18 15 16 20 20 13 20 25 26 21 19 23 21 21 19 22 21 21 21 20 20 18 15 18 17 17 15 15 12 9 9 7 9 10 10 10 10 10 9 11 11 12 14 14 14
25 14 16 19 17 16 23 9 29 11 17 16 16 20 20 22 23 23 20 25 24 24 23 21 21 17 16 11 15 13 13 15 12 10 9 7 8 9 10 9 9 9 9 9 10 11 12 13 11
16 18 15 13 12 11 28 12 22 12 17 12 6 19 14 19 20 22 28 29 27 26 25 22 21 17 14 13 15 14 16 16 13 10 11 9 7 7 9 7 8 8 8 9 10 10 11 12 12
14 11 5 6 10 15 14 12 21 5 3 7 12 13 13 17 19 21 21 21 25 27 26 23 21 18 16 15 15 15 14 12 14 11 11 9 8 7 7 6 7 7 8 8 9 10 11 12 11
17 15 9 10 13 15 21 22 12 5 7 6 7 12 13 15 16 21 22 24 26 28 28 24 23 20 18 17 17 16 15 13 12 12 12 10 9 8 6 6 6 7 8 9 9 10 11 11 10
17 15 17 19 20 12 12 13 14 11 8 10 5 4 8 16 15 19 20 26 27 29 29 27 25 22 20 19 19 17 14 14 14 12 12 11 9 8 6 6 7 7 9 9 9 11 12 11 12
14 11 2 2 3 6 12 15 7 6 13 13 6 2 2 8 14 15 17 24 25 33 31 26 25 23 21 21 19 18 16 15 14 13 13 12 9 9 7 7 6 8 9 10 11 11 12 11 12
9 9 12 8 4 3 3 6 4 9 5 4 8 8 7 9 9 13 15 25 24 32 30 28 23 25 23 22 21 21 19 17 15 15 14 12 10 10 8 8 6 9 10 11 12 11 12 12 12
15 9 16 7 5 8 7 13 9 12 11 1 3 5 5 5 9 14 15 22 27 30 30 31 25 27 25 23 23 22 21 19 18 16 14 12 11 10 8 7 7 8 10 11 13 11 12 13 13
Wind_Direction
298 278 248 248 244 231 260 253 257 41 84 64 37 58 91 39 32 97 141 132 129 125 116 122 136 131 128 121 119 113 108 106 100 102 96 102 94 97 103 100 86 47 30 8 356 314 302 298 299
287 262 236 272 249 267 264 276 74 51 76 79 76 345 38 73 69 118 131 136 131 122 121 121 134 130 115 115 115 111 105 102 100 96 99 94 91 87 80 74 57 22 9 3 356 330 314 308 304
270 266 263 239 239 246 268 8 85 76 90 120 106 37 56 77 126 146 135 130 121 124 120 126 129 118 113 113 112 108 106 105 102 97 95 91 86 75 66 46 20 355 345 339 334 327 320 312 305
247 224 239 264 265 268 267 356 90 102 65 121 112 81 75 63 111 130 134 134 124 122 123 128 123 117 111 104 103 104 103 102 102 96 92 86 76 64 45 26 13 359 346 339 334 329 323 316 311
236 267 249 260 268 265 267 24 345 147 169 194 150 86 85 86 107 127 135 135 126 122 123 123 113 109 108 109 104 105 104 105 100 95 88 76 63 48 35 24 14 4 354 345 338 331 326 321 319
255 241 260 269 267 258 157 78 225 218 165 145 103 104 95 119 129 134 136 130 127 126 130 122 119 118 114 112 111 106 105 102 98 89 79 61 47 39 30 23 11 4 357 353 347 341 336 331 329
240 263 261 268 286 296 224 144 215 244 158 145 150 95 131 148 139 139 136 134 134 134 131 130 129 125 123 120 117 109 102 95 80 76 73 61 38 36 26 24 12 6 2 357 355 350 348 347 350
246 259 272 276 279 283 305 127 201 230 136 91 123 149 165 149 148 142 138 134 137 138 139 143 128 119 116 111 97 90 86 88 75 67 72 59 49 32 358 16 12 17 16 12 10 7 10 8 3
258 265 265 269 269 321 131 151 157 42 110 107 74 48 131 138 146 144 141 137 135 140 140 144 146 138 133 114 97 78 70 71 64 51 66 71 31 36 25 10 11 10 11 8 1 1 7 4 351
229 245 257 263 335 322 28 228 168 168 188 162 99 104 127 143 154 156 156 155 155 154 152 151 151 151 144 137 103 116 111 83 74 77 58 69 44 30 31 12 15 6 354 10 358 1 357 342 346
239 247 265 285 336 326 312 250 256 180 227 191 155 141 148 153 163 164 163 159 159 156 158 157 155 148 147 135 133 127 117 94 43 61 72 55 35 39 35 17 11 8 357 358 356 356 344 348 340
244 259 259 280 299 315 282 281 213 230 228 273 151 153 159 167 171 171 167 164 158 161 154 154 154 151 144 136 136 132 124 109 87 40 83 68 38 40 29 17 13 8 359 355 355 350 341 343 340
263 264 268 275 267 260 278 281 293 212 171 128 135 154 165 174 176 177 169 163 154 157 154 156 154 152 148 141 138 128 115 116 102 74 54 82 47 52 31 22 14 4 4 355 353 346 347 342 341
285 289 286 282 274 254 254 271 269 262 191 177 146 165 172 180 179 178 164 153 157 153 155 155 154 151 145 140 137 131 124 112 106 86 65 63 59 52 39 21 16 355 8 357 353 349 346 343 339
276 262 261 253 259 262 241 248 249 253 225 184 183 174 178 185 183 182 159 154 158 156 158 160 155 151 144 139 138 137 129 124 111 84 63 48 50 54 46 29 17 0 8 357 356 353 351 347 341
260 253 257 250 240 239 237 253 248 240 217 199 184 193 184 189 187 174 157 158 160 161 161 163 160 153 146 146 142 137 129 122 113 100 59 51 44 49 54 27 9 17 7 1 -0 356 351 346 342
249 253 250 253 234 240 213 235 241 278 240 192 204 188 183 184 186 165 160 164 160 159 161 168 160 156 152 149 145 137 126 118 107 94 66 54 39 45 56 29 12 19 9 10 6 360 356 345 346
256 244 230 241 251 235 224 226 235 249 265 184 213 197 181 184 184 157 165 167 170 159 167 166 162 159 155 150 143 136 127 116 110 94 72 60 44 49 51 36 24 23 17 14 8 4 360 0 350
262 275 285 288 289 316 218 238 251 257 198 211 209 216 179 183 173 155 166 164 169 154 165 168 164 164 159 159 157 152 138 127 112 93 87 66 47 52 35 40 29 20 21 17 13 7 4 4 4
273 270 262 274 275 279 276 261 248 255 249 207 208 212 184 171 170 164 158 162 147 155 166 172 169 172 174 167 153 142 135 121 125 120 85 73 50 48 42 37 31 20 21 19 17 16 8 7 18
260 267 273 273 284 271 273 271 263 241 257 259 212 208 189 172 172 160 163 160 155 163 173 168 170 180 168 147 139 138 130 132 138 122 96 64 55 46 47 39 33 25 24 21 19 18 14 9 16
252 249 278 258 267 268 256 271 257 261 243 231 239 198 181 171 168 160 164 163 167 169 176 176 173 169 152 150 154 155 164 147 120 121 111 81 74 55 45 44 37 36 31 28 22 17 17 18 14
254 236 255 282 293 301 268 260 280 279 278 266 249 188 179 170 165 163 168 167 176 176 170 176 168 166 165 165 158 145 116 121 129 125 118 115 89 70 52 42 38 35 35 30 27 23 25 21 15
274 271 262 270 273 261 261 248 270 265 269 266 273 157 151 154 161 158 165 169 178 175 171 169 163 156 160 150 150 147 136 140 138 143 131 115 102 86 59 48 45 34 38 33 31 28 27 21 16
245 238 212 233 226 242 255 241 236 257 48 75 126 137 145 151 161 160 165 169 177 169 167 162 169 155 158 153 147 139 138 138 130 136 122 124 118 94 66 57 50 39 34 41 36 34 30 21 13
209 223 214 219 236 244 242 237 261 285 72 74 115 178 165 158 162 166 164 166 178 165 162 166 169 162 162 155 143 138 135 130 133 122 124 114 116 99 90 74 62 50 42 45 41 42 36 25 19
240 216 246 264 263 268 258 266 252 256 168 154 162 168 188 167 162 161 161 165 176 163 166 171 166 165 165 152 145 143 138 137 130 123 122 117 114 112 97 83 69 59 51 51 53 49 38 32 29
231 279 214 98 241 237 251 259 257 21 44 32 47 8 289 141 157 156 158 165 174 161 162 167 166 166 160 154 150 145 142 137 134 133 125 123 121 113 106 92 79 69 62 60 59 54 46 42 32
265 249 277 275 192 235 268 248 233 115 33 75 204 208 199 176 167 159 160 166 158 152 154 160 166 164 164 161 154 148 142 140 138 131 128 128 124 116 114 94 90 80 69 72 67 59 57 49 40
271 295 264 240 240 230 242 258 330 327 294 128 306 184 260 177 160 156 153 155 142 151 151 160 173 164 165 162 153 148 147 144 140 134 132 134 128 118 115 115 95 81 79 71 81 64 58 57 42